{"data":{"norad_id":61211,"intl_designator":"2024-171M","name":"STARLINK-11298 [DTC]","alt_names":[],"object_type":"PAYLOAD","status":"ACTIVE","operator":null,"country":"US","launch_date":"2024-09-20","launch_site_code":"AFWTR","launch_vehicle":null,"mission":null,"orbit_class":"UNKNOWN","rcs_meters":null,"size_class":null,"mass_kg":null,"dimensions":null,"purposes":["comms"],"wikipedia_slug":null,"has_3d_model":false,"image_url":null,"decayed_at":null,"tle_current":{"epoch":"2026-09-20T13:48:32.248800Z","epoch_age_seconds":185665,"freshness":"STALE","line1":"1 61211U 24171M   26263.57537325  .00000457  00000+0  86194-5 0  9990","line2":"2 61211  53.1612 295.8428 0000783  36.3187 323.7884 15.69718734115008","mean_motion":15.69718734,"eccentricity":7.83e-5,"inclination_deg":53.1612,"raan_deg":295.8428,"arg_perigee_deg":36.3187,"mean_anomaly_deg":323.7884,"bstar":8.6194e-6,"rev_number":11500,"period_min":91.736179788754,"perigee_km":359.17418439618,"apogee_km":360.22932994555,"semimajor_km":6737.8387571709,"source":"CELESTRAK","updated_at":"2026-09-22T09:00:49.341122Z"}}}